Regional Weather Roundup
Issued by NWS

Home | Current Version | Previous Version | Text Only | Print | Product List | Glossary On
Versions: 1 2 3 4 5 6 7 8 9 10 11 12 13 14 15 16 17 18 19 20 21 22 23 24 25 26 27 28 29 30 31 32 33 34 35 36 37 38 39 40 41 42 43 44 45 46 47 48 49 50
000
ASUS42 KTBW 271417
RWRFL
FLORIDA REGIONAL WEATHER ROUNDUP
NATIONAL WEATHER SERVICE TAMPA BAY RUSKIN FL
1000 AM EDT WED MAY 27 2015

NOTE: "FAIR" INDICATES FEW OR NO CLOUDS BELOW 12,000 FEET WITH NO
SIGNIFICANT WEATHER AND/OR OBSTRUCTIONS TO VISIBILITY.


FLZ001>010-012>015-112-114-115-271500-
PANHANDLE FLORIDA

CITY           SKY/WX    TMP DP  RH WIND       PRES   REMARKS
PENSACOLA      CLOUDY    78  75  90 E9        30.15R
PENSACOLA NAS  PTSUNNY   81  74  79 SE12      30.15R
MILTON NAS     MOSUNNY   78  72  81 SE6       30.16
CRESTVIEW      MOSUNNY   80  73  79 NE3       30.18S
DUKE FIELD     PTSUNNY   80  72  75 S6        30.15F
VALPARAISO     MOSUNNY   80  72  77 SE8       30.16S
MARY ESTHER    SUNNY     81  72  74 E7        30.14R
TRI COUNTY     PTSUNNY   75  71  87 CALM      30.20S
PANAMA CITY    FAIR      78  72  81 E7        30.17F
TYNDALL AFB    MOSUNNY   79  72  78 E8        30.17F
APALACHICOLA   CLOUDY    84  73  69 SE10      30.19R

STATION/POSITION SKY/WX   TEMP    WIND        PRES    WAVE   SWELL
                          AIR SEA DIR/SP/G            HT/PER HT/PER
                          (F)     (DEG/KT/KT) (MB)    (FT/S) (FT/S)
30.1N   87.6W              80 80  140/ 12/ 14 1019.7R   4/ 7   3/ 7
29.2N   88.2W              79 79  140/ 12/ 14 1020.0R   3/ 7   3/ 7
28.8N   86.0W              80 81  130/ 10/ 12 1021.4R   4/ 5   3/ 5
PANAMA CITY BEAC           75 80   40/  6/  7 1021.5F
CAPE SAN BLAS    NOT AVBL
TOWER C                    79     150/ 13/ 14 1022.0R
28.5N   84.5W              81 80  140/ 10/ 14 1021.9R   4/ 6   3/ 6

$$
FLZ011-016>038-118-127-128-134-139-239-271500-
NORTH FLORIDA

CITY           SKY/WX    TMP DP  RH WIND       PRES   REMARKS
MARIANNA       CLOUDY    73  72  96 E7        30.19F
TALLAHASSEE    PTSUNNY   79  70  74 E7        30.21S
PERRY          MOSUNNY   79  71  76 E8        30.22F
CROSS CITY       N/A     80  71  74 VRB6      30.21S
LAKE CITY      FAIR      77  72  83 SE7       30.23S
GAINESVILLE    MOSUNNY   79  68  69 SE9       30.22S
MAYPORT NAS    PTSUNNY   82  65  56 SE9       30.23S
JACKSONVILLE   PTSUNNY   79  66  64 E7        30.23S
JAX NAS        PTSUNNY   82  65  56 SE9       30.24R
JAX CRAIG      MOSUNNY   81  64  56 SE6       30.23S
JAX CECIL      PTSUNNY   81  66  61 VRB6      30.23S
FERNANDINA BEA FAIR      86  68  54 SE8       30.23S
ST AUGUSTINE   SUNNY     81  69  67 E7        30.24R

STATION/POSITION SKY/WX   TEMP    WIND        PRES    WAVE   SWELL
                          AIR SEA DIR/SP/G            HT/PER HT/PER
                          (F)     (DEG/KT/KT) (MB)    (FT/S) (FT/S)
SHELL POINT                75      90/  5/  9   N/A
KEATON BEACH               77     120/  8/  9 1023.1S
CEDAR KEY                  77     120/  7/  8 1023.5R
FERNANDINA                 78 80  160/  5/  8 1023.5R
30.7N   81.3W                 79                N/A     3/ 5
MAYPORT                    78 80  130/  6/  8 1024.1R
31.4N   80.9W              77 77  140/  6/  8 1024.8R   3/ 5   3/ 5
ST AUGUSTINE               77 78  110/  7/  8 1024.4R

$$
FLZ040-043>046-052-053-057-058-063-144-271500-
INTERIOR CENTRAL FLORIDA

CITY           SKY/WX    TMP DP  RH WIND       PRES   REMARKS
THE VILLAGES     N/A     82  70  65 E8        30.12S
LEESBURG       MOSUNNY   81  67  62 SE6       30.22S
SANFORD        SUNNY     82  68  62 CALM      30.21R
ORLANDO EXEC   MOSUNNY   81  68  64 MISG      30.21R
ORLANDO INTL   PTSUNNY   81  69  67 SE7       30.20R
KISSIMMEE      PTSUNNY   81  70  69 SE7       30.21R
WINTER HAVEN   MOSUNNY   82  67  60 E9        30.21R
LAKELAND       PTSUNNY   81  68  65 SE9       30.20S
OKEECHOBEE     SUNNY     81  68  65 E7        30.17S

$$
FLZ041-047-054-059-064-141-147-271500-
EAST CENTRAL FLORIDA

CITY           SKY/WX    TMP DP  RH WIND       PRES   REMARKS
ORMOND BEACH   MOSUNNY   81  66  61 E9        30.21R
DAYTONA BEACH  PTSUNNY   80  67  64 E8        30.22R
DELAND           N/A     81  68  65 SE7       30.23S
NEW SMYRNA BEA MOSUNNY   82  66  57 E10G16    30.22R
JFK SPACE CTR  MOSUNNY   83  65  55 E12       30.20R
CAPE CANAVERAL SUNNY     82  66  59 SE10      30.19R
PATRICK AFB    MOSUNNY   81  66  58 SE12      30.19R
MELBOURNE      PTSUNNY   83  65  54 E14       30.18R
VERO BEACH     MOSUNNY   85  63  47 SE13      30.18R
FT PIERCE      MOSUNNY   82  66  58 E14       30.16R
STUART         MOSUNNY   84  64  51 E14G21    30.17R

STATION/POSITION SKY/WX   TEMP    WIND        PRES    WAVE   SWELL
                          AIR SEA DIR/SP/G            HT/PER HT/PER
                          (F)     (DEG/KT/KT) (MB)    (FT/S) (FT/S)
28.5N   80.2W              79 81  100/ 16/ 21 1021.9R
28.9N   78.5W              77 81   80/ 16/ 19 1022.4R
TRIDENT PIER               80 82   90/  9/ 13 1022.7R
28.4N   80.5W                 81                N/A     4/ 5
27.5N   80.2W                 81                N/A     4/ 5

$$
FLZ050-056-061-142-242-148-248-149-249-151-251-155-255-
160-260-271500-
WEST CENTRAL FLORIDA

CITY           SKY/WX    TMP DP  RH WIND       PRES   REMARKS
CRYSTAL RIVER  FAIR      79  70  73 SE5       30.20F
INVERNESS      FAIR      79  72  78 E6        30.22S
BROOKSVILLE    MOSUNNY   80  68  66 E8        30.21S
CLEARWATER     MOSUNNY   79  69  71 SE10      30.19R
TAMPA INTL     PTSUNNY   81  67  62 E7        30.20R
TAMPA EXEC     PTSUNNY   82  70  65 E7        30.20R
PLANT CITY     PTSUNNY   82  72  69 E7        30.22R
MACDILL AFB    MOSUNNY   80  72  75 E8        30.19R
PETER O KNIGHT PTSUNNY   81  70  69 SE7       30.20R
ST PETERSBURG  MOSUNNY   80  69  69 SE10      30.17S
SARASOTA       SUNNY     80  69  69 E8        30.17R
VENICE         FAIR      81  70  69 SE8       30.18R

STATION/POSITION SKY/WX   TEMP    WIND        PRES    WAVE   SWELL
                          AIR SEA DIR/SP/G            HT/PER HT/PER
                          (F)     (DEG/KT/KT) (MB)    (FT/S) (FT/S)
CEDAR KEY                  77     120/  7/  8 1023.5R
28.5N   84.5W              81 80  140/ 10/ 14 1021.9R   4/ 6   3/ 6
27.3N   84.2W                 81                N/A     4/ 5
CLEARWATER BEACH           78 83  110/ 11/ 13 1022.2R
MIDDLE TAMPA BAY           78     130/  8/ 12 1022.1R
VENICE                     80 85  100/  5/  8 1021.3R

$$
FLZ066-069-070-075>078-162-262-165-265-271500-
SOUTHWEST FLORIDA AND KEYS

CITY           SKY/WX    TMP DP  RH WIND       PRES   REMARKS
PUNTA GORDA    MOSUNNY   83  68  60 E10       30.18R
FT MYERS       SUNNY     82  67  60 E10       30.14S
SOUTHWEST INTL MOSUNNY   82  66  58 E12       30.15R
NAPLES         MOSUNNY   82  70  66 E9        30.13S
MARCO ISLAND     N/A     82  68  61 E9G16     30.13S
IMMOKALEE      SUNNY    N/A N/A N/A SE7       30.15S
MARATHON       MOSUNNY   84  72  67 E14G23    30.10R
KEY WEST NAS   MOSUNNY   84  69  60 E15       30.10S
KEY WEST INTL  MOSUNNY   83  68  60 E15       30.11R

STATION/POSITION SKY/WX   TEMP    WIND        PRES    WAVE   SWELL
                          AIR SEA DIR/SP/G            HT/PER HT/PER
                          (F)     (DEG/KT/KT) (MB)    (FT/S) (FT/S)
VENICE                     80 85  100/  5/  8 1021.3R
NAPLES                     79 84   80/  4/  6 1020.5R
26.0N   85.6W              78 82  100/ 16/ 17 1020.0R   3/ 6
DRY TORTUGAS               81     100/ 18/ 19 1019.3R
NW FL BAY                  81     110/ 16/ 19 1019.3
SAND KEY                   81      90/ 18/ 20 1019.1F
SOMBRERO KEY               81      90/ 20/ 21 1019.4R
LONG KEY                   80 82  100/ 15/ 17 1020.2R
MOLASSES REEF              80 83  100/ 17/ 19 1019.3R

$$
FLZ067-068-071>074-168-172>174-271500-
SOUTHEAST FLORIDA

CITY           SKY/WX    TMP DP  RH WIND       PRES   REMARKS
W PALM BEACH   MOSUNNY   83  68  60 E16       30.15R
FT LAUDER-EXEC MOSUNNY   83  69  62 E20       30.12S
FT LAUDERDALE  PTSUNNY   83  70  64 E22       30.11S
POMPANO BEACH  MOSUNNY   83  68  60 E17       30.12S
PEMBROKE PINES PTSUNNY   83  69  62 E15G23    30.13S
OPA LOCKA      PTSUNNY   84  68  58 E16       30.12S
MIAMI          MOSUNNY   84  68  58 E16       30.12S
WEST KENDALL   MOSUNNY   85  68  56 E15G23    30.11S
HOMESTEAD      SUNNY     83  69  62 E12       30.11S

STATION/POSITION SKY/WX   TEMP    WIND        PRES    WAVE   SWELL
                          AIR SEA DIR/SP/G            HT/PER HT/PER
                          (F)     (DEG/KT/KT) (MB)    (FT/S) (FT/S)
PORT EVERGLADES            81      90/ 12/ 15 1020.0R
VIRGINIA KEY               80 83   90/ 13/ 19 1019.3R
LAKE WORTH                 79 81   90/ 15/ 19 1019.9R
SETTLEMENT POINT           79     100/ 13/ 15 1021.3R

$$



USA.gov is the U.S. government's official web portal to all federal, state and local government web resources and services.